258  
ASUS45 KPSR 232010  
RWRAZ  
 
ARIZONA HOURLY REGIONAL WEATHER ROUNDUP  
NATIONAL WEATHER SERVICE PHOENIX AZ  
100 PM MST TUE APR 23 2019  
 
NOTE: FAIR INDICATES FEW OR NO CLOUDS BELOW 12,000 FEET WITH NO  
SIGNIFICANT WEATHER AND/OR S TO VISIBILITY
.  
 
AZZ001>003-036-232100-  
NORTHWEST ARIZONA  
 
CITY SKY/WX TMP DP RH WIND PRES REMARKS
 
BULLHEAD CITY MOSUNNY 86 37 17 NW23 29.85F  
KINGMAN SUNNY 78 35 21 N12 30.00F  

 
 
AZZ004>008-015-016-018-232100-  
NORTH CENTRAL ARIZONA  
 
CITY SKY/WX TMP DP RH WIND PRES REMARKS
 
GRAND CANYON PTSUNNY 61 30 31 N10 30.12F  
WILLIAMS PTSUNNY 59 28 31 NE17G23 30.11  
PRESCOTT PTSUNNY 66 28 24 NE12G21 30.04S  
FLAGSTAFF CLOUDY 59 32 36 E7 30.12F  
PAYSON CLOUDY 57 39 51 S5 30.07  

 
 
AZZ009>014-017-232100-  
NORTHEAST ARIZONA  
 
CITY SKY/WX TMP DP RH WIND PRES REMARKS
 
WINSLOW CLOUDY 64 36 35 N3 30.06F  
SAINT JOHNS MOSUNNY 64 34 32 MISG 30.01F  
WINDOW ROCK LGT RAIN 51 36 56 SE10 30.12R  
SHOW LOW MOSUNNY 63 32 31 N10G21 30.07F  

 
 
AZZ540-542>544-546-548-232100-  
GREATER PHOENIX AREA  
 
CITY SKY/WX TMP DP RH WIND PRES REMARKS
 
PHOENIX PTSUNNY 82 34 17 CALM 29.83F  
BUCKEYE MOSUNNY 82 36 18 SE7 29.87  
GLENDALE MOSUNNY 86 32 14 VRB5 29.86F  
LUKE AFB MOSUNNY 83 34 17 N7 29.84F  
DEER VALLEY PTSUNNY 81 33 17 CALM 29.86F  
SCOTTSDALE PTSUNNY 82 32 16 S5 29.86F  
MESA-FALCON MOSUNNY 84 33 16 MISG 29.85F  
MESA-GATEWAY PTSUNNY 82 37 20 N3 29.86F  
CHANDLER PTSUNNY 84 36 17 S10 29.85F  

 
 
AZZ539-553-232100-  
SOUTHWEST MARICOPA COUNTY AND PINAL COUNTY  
 
CITY SKY/WX TMP DP RH WIND PRES REMARKS
 
CASA GRANDE SUNNY 83 36 18 CALM 29.87F  
GILA BEND FAIR 83 34 17 CALM 29.85F  

 
 
AZZ503-504-507>509-232100-  
SOUTHEAST ARIZONA  
 
CITY SKY/WX TMP DP RH WIND PRES REMARKS
 
TUCSON PTSUNNY 76 29 17 NW7 29.90F  
DAVIS-MONTHAN PTSUNNY 76 32 20 N3 29.88  
RYAN FIELD SUNNY 81 28 15 SW5 29.90F  
NOGALES CLOUDY 71 24 17 VRB6 29.94F  
SIERRA VISTA PTSUNNY 70 16 12 S5 29.97  
DOUGLAS PTSUNNY N/A N/A N/A MISG 29.92F  
SAFFORD PTSUNNY 76 34 21 VRB5 29.89F  

 
 
AZZ532-232100-  
SOUTHWEST ARIZONA  
 
CITY SKY/WX TMP DP RH WIND PRES REMARKS
 
YUMA MOSUNNY 90 41 18 W9 29.83F  

 
 
CAZ041-043-047-048-061-525>527-560>570-232100-  
SOUTHERN CALIFORNIA  
 
CITY SKY/WX TMP DP RH WIND PRES REMARKS
 
DOWNTOWN L.A. SUNNY 72 57 59 VRB3 29.94F  
L.A. AIRPORT MOSUNNY 68 57 68 SW12 29.96F  
SAN DIEGO MOSUNNY 66 55 67 SW12 29.98F  
BURBANK SUNNY 80 54 40 S9 29.92F  
ONTARIO MOSUNNY 90 45 21 W13 29.93F  
RIVERSIDE SUNNY 89 39 17 W8G16 29.90F  
PALM SPRINGS SUNNY 94 31 10 VRB5G16 29.88F  
EL CENTRO NAS MOSUNNY 93 31 11 N12 29.85F  
IMPERIAL SUNNY 90 40 17 NW9 29.84F  
BLYTHE SUNNY 91 38 15 N13 29.84F  
NEEDLES SUNNY 90 37 15 N13 29.88F  

 
 
NVZ020-UTZ003-232100-  
SOUTHERN NEVADA-UTAH  
 
CITY SKY/WX TMP DP RH WIND PRES REMARKS
 
LAS VEGAS MOSUNNY 82 36 19 N8G21 29.96F  
SALT LAKE CITY PTSUNNY 64 44 48 W14 30.13F  

 
 
NMZ009-TXZ055-232100-  
NEW MEXICO-WEST TEXAS  
 
CITY SKY/WX TMP DP RH WIND PRES REMARKS
 
ALBUQUERQUE PTSUNNY 54 46 74 N8 30.09F  
EL PASO MOSUNNY 74 43 32 E17 29.94F  

 
 
   
.......................KEY.....................
 
 
SKY/WX - SKY CONDITION/WEATHER  
TMP - TEMPERATURE IN FAHRENHEIT  
DP - DEW POINT IN FAHRENHEIT  
RH - RELATIVE HUMIDITY IN PERCENT  
WIND - DIRECTION AND SPEED IN MILES PER HOUR (MPH)  
VRB - VARIABLE WIND DIRECTION  
PRES - MEAN SEA LEVEL PRESSURE IN INCHES OF MERCURY  
F - FALLING PRESSURE R - RISING PRESSURE  
S - STEADY PRESSURE  
VSB - VISIBILITY IN MILES  
HX - HEAT INDEX IN FAHRENHEIT  
WCI - WIND CHILL INDEX IN FAHRENHEIT  
TC - TEMPERATURE IN CELSIUS WHICH IS ALSO KNOWN AS  
TEMPERATURE IN CENTIGRADE  
AFB - AIR FORCE BASE  
LUKE AFB IS LUKE AIR FORCE BASE  
DAVIS-MONTHAN IS DAVIS-MONTHAN AIR FORCE BASE  
NAS - NAVAL AIR STATION  
EL CENTRO NAS IS EL CENTRO NAVAL AIR STATION  
N/A - NOT AVAILABLE  
 
 
 
CLICK HERE TO GO TO PREVIOUS BULLETINS.

The Nexlab AZ Page Main Text Page